Kremmling, CO

3:48 AM MST on November 19, 2017 (GMT -0700)
Kremmling

Weather History for K20V - October, 2011

Change the Weather History Date:

Sunday, October 16, 2011

  Actual Average Record
Temperature  
Mean Temperature 52 °F -  
Max Temperature 73 °F - 75 °F (2015)
Min Temperature 32 °F - 15 °F (2008)
Degree Days  
Heating Degree Days 12    
Month to date heating degree days  
Cooling Degree Days 0    
Month to date cooling degree days  
Growing Degree Days 2 (Base 50)    
Moisture  
Dew Point 21 °F    
Average Humidity 40    
Maximum Humidity 81    
Minimum Humidity 7    
Precipitation  
Precipitation 0.00 in - 0.41 in (2008)
Sea Level Pressure  
Sea Level Pressure 30.19 in    
Wind  
Wind Speed 6 mph (WSW)    
Max Wind Speed 25 mph    
Max Gust Speed 39 mph    
Visibility 10 miles    
Events      
T = Trace of Precipitation, MM = Missing Value Source: NWS Daily Summary

Daily Weather History Graph

Daily Weather History Graph

Search for Another Location

Airport or City:

Trip Planner

Search our weather history database for the weather conditions in past years. The results will help you decide how hot, cold, wet, or windy it might be!

Date:

Astronomy

Oct. 16, 2011 Rise Set
Actual Time 7:16 AM MDT 6:24 PM MDT
Civil Twilight 6:49 AM MDT 6:51 PM MDT
Nautical Twilight 6:18 AM MDT 7:23 PM MDT
Astronomical Twilight 5:46 AM MDT 7:54 PM MDT
Moon 9:12 PM MDT (10/16) 11:36 AM MDT (10/16)
Length of Visible Light 12h 02m
Length of Day
11h 07m
Waning Gibbous, 82% of the Moon is Illuminated
Oct 16
Waning Gibbous
Oct 19
Last Quarter
Oct 26
New
Nov 2
First Quarter
Nov 10
Full

Hourly Weather History & Observations

Time (MDT) Temp. Windchill Dew Point Humidity Pressure Visibility Wind Dir Wind Speed Gust Speed Precip Events Conditions
12:07 AM 42.8 °F 37.0 °F 23.0 °F 46% 30.22 in 10.0 mi East 10.4 mph - N/A   Clear
12:47 AM 41.0 °F 37.1 °F 23.0 °F 49% 30.23 in 10.0 mi East 5.8 mph - N/A   Clear
1:07 AM 41.0 °F 39.0 °F 23.0 °F 49% 30.23 in 10.0 mi East 3.5 mph - N/A   Clear
1:27 AM 39.2 °F 33.6 °F 23.0 °F 52% 30.22 in 10.0 mi East 8.1 mph - N/A   Clear
2:06 AM 37.4 °F 33.8 °F 23.0 °F 56% 30.24 in 10.0 mi East 4.6 mph - N/A   Clear
2:27 AM 37.4 °F 34.9 °F 23.0 °F 56% 30.24 in 10.0 mi NE 3.5 mph - N/A   Clear
2:47 AM 35.6 °F - 23.0 °F 60% 30.24 in 10.0 mi Calm Calm - N/A   Clear
3:07 AM 33.8 °F - 23.0 °F 65% 30.23 in 10.0 mi Calm Calm - N/A   Clear
3:27 AM 33.8 °F - 24.8 °F 70% 30.23 in 10.0 mi Calm Calm - N/A   Clear
3:47 AM 33.8 °F - 24.8 °F 70% 30.22 in 10.0 mi Calm Calm - N/A   Clear
4:07 AM 33.8 °F 28.6 °F 23.0 °F 65% 30.22 in 10.0 mi East 5.8 mph - N/A   Clear
4:27 AM 33.8 °F - 26.6 °F 75% 30.23 in 10.0 mi Calm Calm - N/A   Clear
4:47 AM 33.8 °F - 24.8 °F 70% 30.23 in 10.0 mi Calm Calm - N/A   Clear
5:07 AM 33.8 °F - 24.8 °F 70% 30.24 in 10.0 mi Calm Calm - N/A   Clear
5:27 AM 33.8 °F - 24.8 °F 70% 30.24 in 10.0 mi Calm Calm - N/A   Clear
5:46 AM 35.6 °F - 26.6 °F 70% 30.24 in 10.0 mi Calm Calm - N/A   Clear
6:07 AM 33.8 °F 30.8 °F 26.6 °F 75% 30.24 in 10.0 mi North 3.5 mph - N/A   Clear
6:27 AM 33.8 °F - 28.4 °F 81% 30.24 in 10.0 mi Calm Calm - N/A   Clear
6:47 AM 33.8 °F 30.8 °F 28.4 °F 81% 30.24 in 10.0 mi NNE 3.5 mph - N/A   Scattered Clouds
7:07 AM 32.0 °F - 26.6 °F 80% 30.25 in 10.0 mi Calm Calm - N/A   Scattered Clouds
7:27 AM 33.8 °F - 28.4 °F 81% 30.25 in 10.0 mi Calm Calm - N/A   Mostly Cloudy
7:47 AM 35.6 °F - 28.4 °F 75% 30.24 in 10.0 mi Calm Calm - N/A   Overcast
8:06 AM 37.4 °F 34.9 °F 28.4 °F 70% 30.25 in 10.0 mi WSW 3.5 mph - N/A   Scattered Clouds
8:27 AM 39.2 °F - 28.4 °F 65% 30.25 in 10.0 mi Calm Calm - N/A   Mostly Cloudy
8:47 AM 41.0 °F - 26.6 °F 57% 30.25 in 10.0 mi Calm Calm - N/A   Mostly Cloudy
9:07 AM 44.6 °F - 26.6 °F 49% 30.25 in 10.0 mi Calm Calm - N/A   Scattered Clouds
9:27 AM 50.0 °F - 28.4 °F 43% 30.24 in 10.0 mi Calm Calm - N/A   Clear
9:47 AM 51.8 °F - 26.6 °F 38% 30.24 in 10.0 mi Calm Calm - N/A   Scattered Clouds
10:06 AM 48.2 °F - 30.2 °F 50% 30.24 in 10.0 mi West 3.5 mph - N/A   Mostly Cloudy
10:26 AM 50.0 °F - 30.2 °F 47% 30.24 in 10.0 mi Calm Calm - N/A   Mostly Cloudy
10:47 AM 51.8 °F - 28.4 °F 41% 30.22 in 10.0 mi ESE 4.6 mph - N/A   Scattered Clouds
11:06 AM 55.4 °F - 28.4 °F 36% 30.22 in 10.0 mi East 3.5 mph - N/A   Clear
11:27 AM 59.0 °F - 23.0 °F 25% 30.20 in 10.0 mi Calm Calm - N/A   Clear
11:47 AM 62.6 °F - 21.2 °F 20% 30.20 in 10.0 mi SSW 4.6 mph - N/A   Clear
12:07 PM 66.2 °F - 21.2 °F 18% 30.19 in 10.0 mi WSW 9.2 mph 20.7 mph N/A   Clear
12:27 PM 71.6 °F - 19.4 °F 14% 30.18 in 10.0 mi SW 17.3 mph 27.6 mph N/A   Scattered Clouds
12:47 PM 69.8 °F - 15.8 °F 13% 30.18 in 10.0 mi WSW 18.4 mph 28.8 mph N/A   Scattered Clouds
1:07 PM 69.8 °F - 14.0 °F 12% 30.17 in 10.0 mi West 21.9 mph 28.8 mph N/A   Clear
1:47 PM 69.8 °F - 14.0 °F 12% 30.15 in 10.0 mi SW 20.7 mph 31.1 mph N/A   Clear
2:07 PM 69.8 °F - 12.2 °F 11% 30.14 in 10.0 mi WSW 17.3 mph 29.9 mph N/A   Clear
2:27 PM 69.8 °F - 8.6 °F 9% 30.13 in 10.0 mi WSW 18.4 mph 28.8 mph N/A   Clear
2:47 PM 71.6 °F - 8.6 °F 9% 30.12 in 10.0 mi WSW 18.4 mph 25.3 mph N/A   Clear
3:07 PM 71.6 °F - 5.0 °F 7% 30.12 in 10.0 mi SW 16.1 mph 20.7 mph N/A   Clear
3:26 PM 73.4 °F - 8.6 °F 8% 30.12 in 10.0 mi WSW 19.6 mph 24.2 mph N/A   Clear
3:47 PM 71.6 °F - 8.6 °F 9% 30.11 in 10.0 mi SW 15.0 mph 25.3 mph N/A   Scattered Clouds
4:07 PM 71.6 °F - 8.6 °F 9% 30.11 in 10.0 mi WSW 13.8 mph 24.2 mph N/A   Scattered Clouds
4:27 PM 71.6 °F - 10.4 °F 9% 30.11 in 10.0 mi West 10.4 mph 19.6 mph N/A   Mostly Cloudy
4:47 PM 68.0 °F - 12.2 °F 12% 30.11 in 10.0 mi WSW 11.5 mph - N/A   Mostly Cloudy
5:07 PM 66.2 °F - 15.8 °F 14% 30.11 in 10.0 mi WSW 13.8 mph 20.7 mph N/A   Mostly Cloudy
5:27 PM 64.4 °F - 14.0 °F 14% 30.11 in 10.0 mi WSW 11.5 mph - N/A   Scattered Clouds
5:47 PM 62.6 °F - 15.8 °F 16% 30.10 in 10.0 mi West 12.7 mph 19.6 mph N/A   Scattered Clouds
6:07 PM 62.6 °F - 14.0 °F 15% 30.10 in 10.0 mi WSW 13.8 mph 20.7 mph N/A   Mostly Cloudy
6:27 PM 62.6 °F - 14.0 °F 15% 30.10 in 10.0 mi West 15.0 mph 19.6 mph N/A   Overcast
6:47 PM 60.8 °F - 14.0 °F 16% 30.11 in 10.0 mi WSW 9.2 mph - N/A   Overcast
7:07 PM 62.6 °F - 14.0 °F 15% 30.12 in 10.0 mi WSW 13.8 mph 26.5 mph N/A   Overcast
7:27 PM 60.8 °F - 15.8 °F 17% 30.13 in 10.0 mi WSW 25.3 mph 39.1 mph N/A   Overcast
7:47 PM 60.8 °F - 19.4 °F 20% 30.14 in 10.0 mi WNW 8.1 mph 21.9 mph N/A   Overcast
8:07 PM 59.0 °F - 21.2 °F 23% 30.13 in 10.0 mi NNW 13.8 mph 18.4 mph N/A   Overcast
8:27 PM 57.2 °F - 23.0 °F 27% 30.14 in 10.0 mi NNW 13.8 mph 18.4 mph N/A   Overcast
9:07 PM 55.4 °F - 28.4 °F 36% 30.14 in 10.0 mi NE 3.5 mph - N/A   Mostly Cloudy
9:27 PM 55.4 °F - 26.6 °F 33% 30.12 in 10.0 mi Calm Calm - N/A   Scattered Clouds
9:46 PM 51.8 °F - 28.4 °F 41% 30.12 in 10.0 mi ESE 6.9 mph - N/A   Clear
10:06 PM 51.8 °F - 28.4 °F 41% 30.12 in 10.0 mi East 6.9 mph - N/A   Clear
10:27 PM 51.8 °F - 28.4 °F 41% 30.12 in 10.0 mi East 5.8 mph - N/A   Scattered Clouds
10:47 PM 51.8 °F - 28.4 °F 41% 30.12 in 10.0 mi SSE 4.6 mph - N/A   Scattered Clouds
11:07 PM 51.8 °F - 30.2 °F 44% 30.13 in 10.0 mi Calm Calm - N/A   Mostly Cloudy
11:27 PM 50.0 °F - 30.2 °F 47% 30.13 in 10.0 mi Calm Calm - N/A   Overcast
11:47 PM 50.0 °F - 30.2 °F 47% 30.13 in 10.0 mi Calm Calm - N/A   Overcast